TimeCDT,TemperatureF,Dew PointF,Humidity,Sea Level PressureIn,VisibilityMPH,Wind Direction,Wind SpeedMPH,Gust SpeedMPH,PrecipitationIn,Events,Conditions,WindDirDegrees,DateUTC
12:53 AM,19.0,8.1,62,30.09,10.0,NW,16.1,-,N/A,,Mostly Cloudy,310,2013-04-01 05:53:00
1:53 AM,19.0,8.1,62,30.10,10.0,WNW,16.1,-,N/A,,Overcast,300,2013-04-01 06:53:00
2:53 AM,17.1,6.1,62,30.12,10.0,WNW,11.5,-,N/A,,Overcast,300,2013-04-01 07:53:00
3:53 AM,14.0,5.0,67,30.13,10.0,NW,11.5,-,N/A,,Clear,310,2013-04-01 08:53:00
4:53 AM,12.9,5.0,71,30.15,10.0,WNW,11.5,-,N/A,,Clear,300,2013-04-01 09:53:00
5:53 AM,12.0,3.9,70,30.17,10.0,NW,13.8,-,N/A,,Clear,310,2013-04-01 10:53:00
6:53 AM,10.9,3.0,70,30.19,10.0,WNW,10.4,-,N/A,,Clear,300,2013-04-01 11:53:00
7:53 AM,12.0,3.0,67,30.21,10.0,WNW,10.4,-,N/A,,Clear,300,2013-04-01 12:53:00
8:53 AM,12.9,5.0,71,30.22,10.0,NW,11.5,-,N/A,,Clear,310,2013-04-01 13:53:00
9:53 AM,17.1,6.1,62,30.23,10.0,NW,13.8,-,N/A,,Clear,320,2013-04-01 14:53:00
10:53 AM,19.0,6.1,57,30.23,10.0,NW,16.1,-,N/A,,Clear,320,2013-04-01 15:53:00
11:53 AM,21.9,7.0,53,30.22,10.0,WNW,17.3,25.3,N/A,,Clear,300,2013-04-01 16:53:00
12:53 PM,25.0,8.1,49,30.21,10.0,NW,20.7,28.8,N/A,,Clear,310,2013-04-01 17:53:00
1:53 PM,28.0,8.1,43,30.19,10.0,NW,19.6,28.8,N/A,,Clear,320,2013-04-01 18:53:00
3:53 PM,30.0,9.0,41,30.19,10.0,WNW,18.4,27.6,N/A,,Clear,300,2013-04-01 20:53:00
4:53 PM,30.9,7.0,37,30.18,10.0,West,15.0,23.0,N/A,,Clear,280,2013-04-01 21:53:00
5:53 PM,30.9,10.0,42,30.19,10.0,NW,13.8,24.2,N/A,,Clear,310,2013-04-01 22:53:00
6:53 PM,30.0,9.0,41,30.19,10.0,WNW,13.8,-,N/A,,Clear,290,2013-04-01 23:53:00
7:53 PM,28.0,9.0,45,30.19,10.0,WNW,11.5,-,N/A,,Clear,290,2013-04-02 00:53:00
8:53 PM,26.1,9.0,49,30.21,10.0,WNW,11.5,18.4,N/A,,Clear,290,2013-04-02 01:53:00
9:53 PM,24.1,9.0,53,30.22,10.0,West,9.2,-,N/A,,Clear,280,2013-04-02 02:53:00
10:53 PM,23.0,9.0,55,30.22,10.0,WNW,10.4,17.3,N/A,,Clear,290,2013-04-02 03:53:00
11:53 PM,21.9,8.1,55,30.22,10.0,WNW,10.4,-,N/A,,Clear,290,2013-04-02 04:53:00